STARLINK-37405, 68809

Orbit data source: Space-Track

STARLINK-37405, 68809 is a payload satellite owned by SpaceX/Seattle (US) in SSO that was launched on Thu, 23 Apr 2026 UTC via an FALCON 9 launch vehicle from the Air Force Western Test Range (AFWTR). Payload-class satellites include a variety of spacecraft equipped with specific instruments for various scientific and technological missions. These include communications satellites like Starlink; space stations such as the ISS; scientific satellites like the Hubble; Earth observation satellites from companies like Planet Labs, Umbra, and HawkEye 360; GPS; miniature CubeSats for education and research; and military/defense satellites.

Loading next visibility...
Identifier
68809, 2026-089H
Orbit
SSO
Country
Flag of USUS
Related business
Manufacturer
SpaceX/Seattle
Mission
Operational spacecraft
Bus & Motor
STARLINK V2MO, Unknown motor
Mass
575 kg wet, ~530 kg dry
Launch date (UTC)
2026-04-23 (1 week ago)
Launch vehicle
FALCON 9
Launch site
Air Force Western Test Range (AFWTR)
Object type
Payload
Rocket body
Debris
Shape & HBR
Unknown
Radar Cross Section
RCS unknown

Expand to show TLE details & history
Last TLE update: 8 hours ago

TLE from 8 hours ago
0 STARLINK-37405
1 68809U 26089H   26121.16670139 -.02075595  00000-0 -93217-2 0  9990
2 68809  97.2854 326.6047 0001593 101.5956 189.7927 15.87060291  2500
Epoch: 2026-05-01T04:00Z
TLE epoch observation values (Epoch: 2026-05-01T04:00:03.000Z)
Latitude
-67.63846°
Longitude
65.48932°
Altitude
337.142 km
Speed
7.704 km/s
True Right ascension
22h 58m 25s
True Declination
-67° 30' 34"
Sunlit
Object was in daylight at epoch
Visualization orbit readout
Latitude
Unknown
Longitude
Unknown
Altitude
Unknown
Speed
Unknown
Apparent Right ascension
Unknown
Apparent Declination
Unknown
Sunlit
N/A
Visualization observer readout
Local Sidereal Time
19:13:30
Azimuth
Unknown
Elevation
Unknown
Doppler factor
Unknown
Orbital elements
Apogee altitude
308.467 km
Perigee altitude
306.337 km
Semi-major axis
6,685.539 km
Eccentricity
0.00016
Inclination
97.2854°
RAAN
326.6047°
Arg. of periapsis
101.5956°
True anomaly
189.7896°
Mean anomaly
189.7927°
Eccentric anomaly
189.79115°
Mean motion
3.97044 °/min
Orbital period
90.67 mins
BSTAR
-0.0093217
Loading maneuver chart data...
Computing Atmospheric mass density...
Loading historical data...
Loading historical data...
Loading historical data...
Loading historical data...
Loading historical data...
Loading historical data...
Loading historical data...

Documentation

Showing up to 5 results
|